User: anonymous
Location: Hepcat Sky Observatory
(29.9800°N, 95.6500°W)
Time: 07:18:00
(UTC-05:00)
Language:

Cosmos 1602 Rocket - Orbit

View from above orbital plane
View from above orbital plane
View from above satellite
View from above satellite

Ground track
Ground track

The orbit data is extracted from the following two-line orbital elements,

1 15332U 84105B   14110.37641196  .00000675  00000-0  80569-4 0  6195
2 15332 082.5364 186.2005 0021052 209.7629 197.6358 14.82683552595575
Epoch (UTC): 20 April 2014 09:02:01
Eccentricity: 0.0021052
inclination: 82.5364°
perigee height: 606 km
apogee height: 635 km
right ascension of ascending node: 186.2005°
argument of perigee: 209.7629°
revolutions per day: 14.82683552
mean anomaly at epoch: 197.6358°
orbit number at epoch: 59557

The dashed part of the orbit path shows where the satellite is in the earth's shadow,  

DLR